Waarnemingen

Advertentie
Mijn weer
St-Auban-Sur-Durance, Frankrijk (7588): temperatuur & dauwpunt: 22.04.2017 02:00:00 - 28.04.2017 02:00:00 (CEST)St-Auban-Sur-Durance, Frankrijk (7588): temperatuur 5cm: 22.04.2017 02:00:00 - 28.04.2017 02:00:00 (CEST)St-Auban-Sur-Durance, Frankrijk (7588): temperatuur -20cm: 22.04.2017 02:00:00 - 28.04.2017 02:00:00 (CEST)St-Auban-Sur-Durance, Frankrijk (7588): windsnelheid & windstoten: 22.04.2017 02:00:00 - 28.04.2017 02:00:00 (CEST)St-Auban-Sur-Durance, Frankrijk (7588): windrichting: 22.04.2017 02:00:00 - 28.04.2017 02:00:00 (CEST)St-Auban-Sur-Durance, Frankrijk (7588): luchtdruk: 22.04.2017 02:00:00 - 28.04.2017 02:00:00 (CEST)St-Auban-Sur-Durance, Frankrijk (7588): zicht: 22.04.2017 02:00:00 - 28.04.2017 02:00:00 (CEST)St-Auban-Sur-Durance, Frankrijk (7588): Zonneschijnduur: 22.04.2017 02:00:00 - 28.04.2017 02:00:00 (CEST)St-Auban-Sur-Durance, Frankrijk (7588): neerslag: 22.04.2017 02:00:00 - 28.04.2017 02:00:00 (CEST)
Datum & Tijd tt [°C] td [°C] tt 5cm [°C] tt -20cm [°C] ff [km/u] ff [kn] fx [km/u] fx [kn] dd ppp [hPa] vv [km] sd [min] rr [mm]
28.04.2017 02:00:00 5,9 -2,2 3,3 13,2 11 6 31 17 WNW 1008,2 20 0 0,0
28.04.2017 01:00:00 4,6 -2,5 1,9 13,4 4 2 20 11 N 1009,2 20 0 0,0
28.04.2017 00:00:00 5,0 -2,4 3,1 13,5 12 7 21 12 N 1009,6 20 0 0,0
27.04.2017 23:00:00 5,4 -1,8 4,4 13,6 11 6 37 20 NNW 1010,0 20 0 0,0
27.04.2017 22:00:00 6,3 -0,7 5,8 13,7 21 11 40 22 N 1009,6 20 0 0,0
27.04.2017 21:00:00 6,2 1,1 6,2 13,8 22 12 45 25 N 1009,6 20 0 0,0
27.04.2017 20:00:00 6,7 1,6 6,9 13,8 27 14 45 25 N 1009,5 20 0 0,0
27.04.2017 19:00:00 7,5 3,5 7,5 13,8 16 9 37 20 N 1009,2 19 0 0,0
27.04.2017 18:00:00 8,9 3,3 9,9 13,8 24 13 36 19 N 1008,9 20 0 0,0
27.04.2017 17:00:00 9,9 5,5 11,2 13,7 10 6 18 10 ZZW 1008,7 20 0 0,0
27.04.2017 16:00:00 10,9 3,7 12,6 13,6 16 9 25 14 N 1008,6 20 0 0,0
27.04.2017 15:00:00 11,0 3,3 13,4 13,6 16 9 29 16 N 1008,7 20 0 0,0
27.04.2017 14:00:00 10,4 3,0 12,0 13,6 16 8 31 17 N 1009,0 20 0 0,0
27.04.2017 13:00:00 9,9 3,0 11,7 13,6 18 10 35 19 N 1009,8 20 0 0,0
27.04.2017 12:00:00 9,6 2,9 11,4 13,6 21 12 35 19 N 1009,7 20 0 0,0
27.04.2017 11:00:00 9,2 3,0 9,9 13,7 10 6 26 14 N 1009,6 20 0 0,0
27.04.2017 10:00:00 8,2 2,4 9,0 13,8 18 10 40 22 NNO 1009,9 20 0 0,0
27.04.2017 09:00:00 7,8 2,7 7,8 13,9 19 11 36 20 NNO 1010,2 20 0 0,0
27.04.2017 08:00:00 7,4 2,3 7,2 14,1 21 11 41 22 NNO 1010,2 20 0 0,0
27.04.2017 07:00:00 7,3 2,4 6,9 14,3 20 11 39 21 NNO 1009,5 20 0 0,0
27.04.2017 06:00:00 7,2 3,1 7,0 14,4 19 11 40 21 N 1009,7 20 0 0,0
27.04.2017 05:00:00 7,5 3,5 7,4 14,6 14 8 30 16 NNO 1009,5 20 0 0,0
27.04.2017 04:00:00 7,8 3,8 7,6 14,7 16 9 29 15 NNO 1009,3 20 0 0,0
27.04.2017 03:00:00 8,0 4,0 7,7 14,8 19 11 38 20 NNO 1009,4 20 0 0,0
27.04.2017 02:00:00 8,4 4,6 7,6 15,0 16 9 36 20 N 1010,2 20 0 0,0
27.04.2017 01:00:00 8,8 5,5 8,1 15,0 23 12 39 21 N 1010,1 20 0 0,0
27.04.2017 00:00:00 9,3 8,1 9,3 15,1 13 7 32 18 N 1009,8 20 0 0,0
26.04.2017 23:00:00 9,5 8,7 9,4 15,2 7 4 14 7 W 1009,7 12 0 0,0
26.04.2017 22:00:00 9,9 9,1 9,6 15,2 6 3 8 4 W 1009,1 20 0 0,0
26.04.2017 21:00:00 10,8 9,9 10,5 15,2 0 0 4 2 N 1008,0 18 7 0,0
26.04.2017 20:00:00 11,5 10,1 11,7 15,2 2 1 9 5 Z 1007,7 20 0 0,0
26.04.2017 19:00:00 11,7 9,9 11,7 15,1 3 2 6 4 Z 1007,5 20 0 0,2
26.04.2017 18:00:00 11,7 9,9 12,2 15,1 4 2 7 4 Z 1007,6 20 0 0,0
26.04.2017 17:00:00 11,5 9,4 11,6 15,0 0 0 5 3 N 1007,7 20 0 1,4
26.04.2017 16:00:00 11,5 9,4 11,8 14,9 2 1 10 5 WNW 1008,3 18 0 0,8
26.04.2017 15:00:00 11,7 9,1 12,5 14,9 5 3 10 5 N 1008,1 20 0 0,4
26.04.2017 14:00:00 11,8 7,9 13,9 14,8 9 5 16 9 N 1007,8 20 0 0,2
26.04.2017 13:00:00 12,0 7,7 13,9 14,8 10 5 25 13 N 1007,9 20 0 0,0
26.04.2017 12:00:00 10,9 7,0 11,9 14,8 15 8 27 15 N 1007,7 20 4 0,0
26.04.2017 11:00:00 9,5 6,6 9,7 14,9 13 7 29 16 NNO 1007,9 20 8 0,0
26.04.2017 10:00:00 7,7 5,8 7,4 15,1 15 8 26 14 NNO 1008,0 20 0 0,0
26.04.2017 09:00:00 6,8 5,4 6,8 15,3 13 7 28 15 NO 1008,4 20 0 0,6
26.04.2017 08:00:00 6,6 5,4 6,8 15,5 14 8 33 18 NO 1008,4 20 0 1,4
26.04.2017 07:00:00 6,6 5,7 6,7 15,9 13 7 28 15 NO 1007,5 12 0 6,1
26.04.2017 06:00:00 6,8 5,6 7,0 16,2 10 5 26 14 NO 1007,2 12 0 5,6
26.04.2017 05:00:00 8,0 6,9 8,0 16,4 4 2 20 11 NO 1007,4 2,6 0 2,6
26.04.2017 04:00:00 8,3 6,8 8,2 16,5 10 5 23 12 O 1007,7 14 0 3,5
26.04.2017 03:00:00 8,6 7,4 8,5 16,7 7 4 12 7 N 1008,8 9 0 3,6
26.04.2017 02:00:00 9,2 7,0 8,7 16,8 3 2 26 14 NO 1009,8 13 0 0,4
26.04.2017 01:00:00 9,8 6,9 9,3 16,9 6 4 20 11 ONO 1010,1 20 0 0,0
26.04.2017 00:00:00 10,4 6,2 9,4 17,1 5 3 18 10 N 1009,6 20 0 0,0
25.04.2017 23:00:00 10,3 7,4 9,2 17,2 9 5 16 8 NNO 1009,7 20 0 0,0
25.04.2017 22:00:00 10,6 6,7 9,3 17,2 4 2 9 5 NNO 1009,8 20 0 0,0
25.04.2017 21:00:00 11,1 7,6 10,0 17,3 5 3 18 10 ONO 1009,8 20 0 0,0
25.04.2017 20:00:00 11,1 7,8 9,4 17,3 6 4 56 30 N 1010,4 20 0 0,6
25.04.2017 19:00:00 13,8 3,0 9,3 17,2 40 22 76 41 ZW 1010,5 10 0 0,2
25.04.2017 18:00:00 17,4 5,0 18,2 17,0 18 10 39 21 ZZO 1008,2 20 0 0,0
25.04.2017 17:00:00 18,4 0,0 20,0 16,7 15 8 44 24 ZZO 1008,6 20 30 0,0
25.04.2017 16:00:00 19,0 1,5 21,2 16,5 23 12 47 25 ZO 1008,8 20 25 0,0
25.04.2017 15:00:00 18,4 4,9 20,8 16,2 18 10 34 18 ZZO 1009,9 20 11 0,0
25.04.2017 14:00:00 18,4 4,5 22,2 15,9 17 9 39 21 Z 1010,7 20 48 0,0
25.04.2017 13:00:00 18,1 3,5 22,5 15,8 21 11 31 17 ZW 1011,4 20 45 0,0
25.04.2017 12:00:00 16,9 4,2 24,1 15,6 10 5 17 9 ZZW 1012,0 20 60 0,0
25.04.2017 11:00:00 14,7 7,0 21,5 15,7 8 4 14 7 Z 1013,1 20 60 0,0
25.04.2017 10:00:00 12,2 7,1 11,3 15,8 3 2 14 8 OZO 1013,9 20 25 0,0
25.04.2017 09:00:00 9,2 6,3 9,7 15,9 6 4 14 8 NO 1014,9 20 7 0,0
25.04.2017 08:00:00 7,4 6,2 6,5 16,1 5 3 9 5 NO 1015,4 12 5 0,0
25.04.2017 07:00:00 6,4 5,5 5,7 16,3 5 3 13 7 ONO 1015,6 17 0 0,0
25.04.2017 06:00:00 6,4 5,5 4,9 16,5 5 3 9 5 NO 1015,6 18 0 0,0
25.04.2017 05:00:00 6,6 5,4 5,4 16,7 8 4 10 5 NNO 1016,0 20 0 0,0
25.04.2017 04:00:00 6,9 5,7 5,8 16,8 3 2 10 6 N 1016,4 20 0 0,0
25.04.2017 03:00:00 7,9 6,4 6,5 17,0 8 4 11 6 OZO 1016,7 20 0 0,0
25.04.2017 02:00:00 8,7 6,7 7,7 17,1 0 0 5 3 N 1017,2 20 0 0,0
25.04.2017 01:00:00 10,7 7,4 9,9 17,2 4 2 10 6 WZW 1017,1 20 0 0,0
25.04.2017 00:00:00 11,0 7,7 9,4 17,4 3 2 11 6 WZW 1017,3 20 0 0,0
24.04.2017 23:00:00 11,1 7,8 9,2 17,4 8 4 14 7 ZW 1017,3 20 0 0,0
24.04.2017 22:00:00 12,1 8,0 11,0 17,5 10 5 13 7 ZW 1017,0 20 0 0,0
24.04.2017 21:00:00 13,3 8,6 12,2 17,5 9 5 21 12 ZW 1016,2 20 8 0,0
24.04.2017 20:00:00 15,4 9,1 15,9 17,3 13 7 31 17 ZZW 1015,6 20 18 0,0
24.04.2017 19:00:00 16,5 8,7 17,6 17,2 21 11 42 23 ZZW 1015,5 20 23 0,0
24.04.2017 18:00:00 18,5 8,7 22,0 16,9 26 14 40 22 ZZW 1014,7 20 54 0,0
24.04.2017 17:00:00 19,7 7,1 22,0 16,6 21 11 35 19 ZZW 1014,5 20 38 0,0
24.04.2017 16:00:00 18,6 8,0 21,4 16,3 21 11 34 18 Z 1015,6 20 23 0,0
24.04.2017 15:00:00 18,3 7,1 21,6 16,0 22 12 37 20 ZZW 1016,3 20 45 0,0
24.04.2017 14:00:00 18,8 7,9 26,0 15,6 19 10 32 17 ZZW 1016,5 20 60 0,0
24.04.2017 13:00:00 17,9 7,3 24,1 15,4 18 10 28 15 ZZW 1017,4 20 60 0,0
24.04.2017 12:00:00 16,3 7,8 23,8 15,4 18 10 27 15 ZW 1018,0 20 60 0,0
24.04.2017 11:00:00 15,5 7,0 23,1 15,3 12 7 18 10 ZZW 1018,4 20 60 0,0
24.04.2017 10:00:00 13,5 8,5 16,9 15,4 5 3 11 6 ONO 1018,9 20 60 0,0
24.04.2017 09:00:00 10,4 8,0 10,2 15,6 6 3 10 5 O 1019,9 18 43 0,0
24.04.2017 08:00:00 7,6 6,8 5,6 15,7 0 0 5 3 N 1020,3 13 2 0,0
24.04.2017 07:00:00 5,5 4,6 4,0 16,0 0 0 5 3 N 1020,4 11 0 0,0
24.04.2017 06:00:00 5,6 4,7 4,5 16,1 3 1 5 3 NNW 1020,0 11 0 0,0
24.04.2017 05:00:00 6,4 5,3 5,2 16,3 3 2 5 3 NNW 1020,0 11 0 0,0
24.04.2017 04:00:00 6,9 5,7 5,7 16,5 0 0 6 3 N 1019,9 13 0 0,0
24.04.2017 03:00:00 8,0 6,8 6,1 16,6 0 0 9 5 N 1019,6 16 0 0,0
24.04.2017 02:00:00 7,8 6,3 6,2 16,8 4 2 8 4 ZO 1019,9 18 0 0,0
24.04.2017 01:00:00 9,3 7,6 7,7 17,0 3 2 10 6 W 1019,7 18 0 0,0
24.04.2017 00:00:00 10,5 7,9 9,1 17,1 9 5 15 8 ZW 1019,4 20 0 0,0
23.04.2017 23:00:00 12,0 8,5 10,8 17,1 11 6 15 8 ZW 1018,7 20 0 0,0
23.04.2017 22:00:00 13,2 8,7 12,2 17,2 9 5 19 10 W 1017,7 20 0 0,0
23.04.2017 21:00:00 15,3 8,3 13,6 17,1 9 5 24 13 Z 1016,3 20 0 0,0
23.04.2017 20:00:00 17,4 8,0 17,0 16,9 15 8 35 19 ZZO 1014,7 20 27 0,0
23.04.2017 19:00:00 19,5 7,6 22,1 16,7 19 10 34 19 Z 1013,7 20 60 0,0
23.04.2017 18:00:00 21,6 2,3 25,7 16,3 21 12 32 18 ZZW 1012,9 20 60 0,0
23.04.2017 17:00:00 22,6 3,2 28,1 15,9 21 12 30 16 ZW 1012,5 20 60 0,0
23.04.2017 16:00:00 22,3 2,4 28,8 15,5 18 10 30 16 ZW 1012,7 20 60 0,0
23.04.2017 15:00:00 21,7 3,4 28,4 15,0 19 10 32 17 ZW 1013,1 20 60 0,0
23.04.2017 14:00:00 20,8 0,6 27,6 14,7 16 9 26 14 ZZW 1013,4 20 60 0,0
23.04.2017 13:00:00 19,5 1,9 26,9 14,5 18 10 34 19 ZW 1014,1 20 60 0,0
23.04.2017 12:00:00 19,1 2,4 25,7 14,3 6 3 31 17 ZW 1014,5 20 60 0,0
23.04.2017 11:00:00 17,7 2,4 21,9 14,3 8 5 37 20 WNW 1014,9 20 60 0,0
23.04.2017 10:00:00 15,6 1,3 16,9 14,4 18 10 40 21 N 1015,4 20 60 0,0
23.04.2017 09:00:00 13,2 0,6 14,6 14,6 15 8 39 21 NNO 1016,1 20 60 0,0
23.04.2017 08:00:00 11,9 0,0 6,9 14,8 14 8 28 15 NNO 1016,6 20 60 0,0
23.04.2017 07:00:00 9,0 0,4 2,1 15,0 5 3 22 12 ZO 1017,0 20 0 0,0
23.04.2017 06:00:00 3,9 1,3 1,6 15,2 8 4 18 10 O 1018,0 20 0 0,0
23.04.2017 05:00:00 3,0 1,7 1,3 15,4 6 4 10 5 O 1018,6 20 0 0,0
23.04.2017 04:00:00 3,5 2,2 1,5 15,6 4 2 9 5 ONO 1019,0 20 0 0,0
23.04.2017 03:00:00 3,6 1,8 2,0 15,8 3 2 8 5 NO 1019,3 20 0 0,0
23.04.2017 02:00:00 4,4 2,3 3,2 16,0 0 0 9 5 N 1020,0 20 0 0,0
23.04.2017 01:00:00 5,2 2,5 3,8 16,2 0 0 6 3 N 1020,3 20 0 0,0
23.04.2017 00:00:00 6,8 3,4 5,2 16,3 4 2 8 5 O 1020,2 20 0 0,0
22.04.2017 23:00:00 8,0 3,6 6,9 16,4 5 3 11 6 NW 1020,1 20 0 0,0
22.04.2017 22:00:00 10,1 3,6 8,3 16,4 5 3 13 7 WZW 1019,6 20 0 0,0
22.04.2017 21:00:00 13,2 4,9 11,7 16,3 4 2 25 13 Z 1018,1 19 0 0,0
22.04.2017 20:00:00 15,9 4,6 15,2 16,2 12 6 30 16 ZZO 1016,9 20 27 0,0
22.04.2017 19:00:00 19,3 1,3 22,4 15,9 17 9 35 19 ZZW 1015,7 20 60 0,0
22.04.2017 18:00:00 20,3 0,1 24,2 15,6 15 8 35 19 Z 1016,1 20 60 0,0
22.04.2017 17:00:00 20,0 2,3 25,5 15,2 23 12 36 20 ZZW 1016,9 20 60 0,0
22.04.2017 16:00:00 20,0 1,9 26,4 14,8 21 11 32 18 ZZW 1017,9 20 60 0,0
22.04.2017 15:00:00 18,9 3,5 25,3 14,4 19 10 29 15 ZZW 1019,1 20 60 0,0
22.04.2017 14:00:00 17,9 3,4 24,7 14,1 14 8 23 13 ZZW 1020,4 20 60 0,0
22.04.2017 13:00:00 16,2 0,3 23,0 13,8 16 9 27 14 ZW 1021,9 20 60 0,0
22.04.2017 12:00:00 14,5 -1,6 20,9 13,7 14 7 22 12 ZW 1023,1 20 60 0,0
22.04.2017 11:00:00 12,6 1,0 19,4 13,8 8 4 16 9 ZW 1024,3 20 60 0,0
22.04.2017 10:00:00 9,9 -0,9 12,9 13,9 5 3 14 8 NO 1025,4 20 60 0,0
22.04.2017 09:00:00 6,2 -0,3 6,9 14,1 6 3 11 6 ONO 1026,7 20 60 0,0
22.04.2017 08:00:00 3,0 0,1 -0,5 14,4 5 3 9 5 ONO 1027,5 12 49 0,0
22.04.2017 07:00:00 0,0 -1,4 -1,1 14,6 7 4 12 7 N 1028,1 20 0 0,0
22.04.2017 06:00:00 0,4 -1,0 -1,0 14,8 5 3 8 5 NO 1028,2 16 0 0,0
22.04.2017 05:00:00 1,5 -0,3 -0,3 15,0 5 3 12 6 NO 1028,2 18 0 0,0
22.04.2017 04:00:00 1,3 -0,3 -0,1 15,2 3 1 6 3 ONO 1028,2 20 0 0,0
22.04.2017 03:00:00 2,3 0,4 0,9 15,4 4 2 8 5 O 1028,3 20 0 0,0
22.04.2017 02:00:00 3,2 0,6 1,8 15,6 4 2 7 4 OZO 1028,4 20 0 0,0

tt = temperatuur
td = dauwpunt
tt 5cm = temperatuur 5cm
tt -20cm = temperatuur -20cm
ff = windsnelheid
fx = windstoten
dd = windrichting
ppp = luchtdruk
vv = zicht
sd = Zonneschijnduur
rr = neerslag

Weerstations in de omgeving